This is the latest recevied weather packets stored in our database for station/object CE4JVU-10. If no packets are shown the sender has not sent any weather packets the latest 10 day(s).
| Time | Temp. | Humidity | Pressure | Rain* | Wind** | Luminosity | Snow |
|---|---|---|---|---|---|---|---|
| 1777710307 | 14.44° C | 55% | 983.3 hPa | - | - | - | - |
| 1777708507 | 14.44° C | 55% | 983.4 hPa | - | - | - | - |
| 1777706707 | 15° C | 55% | 983.6 hPa | - | - | - | - |
| 1777704907 | 15° C | 55% | 984.2 hPa | - | - | - | - |
| 1777703107 | 15.56° C | 55% | 984.6 hPa | - | - | - | - |
| 1777701306 | 15.56° C | 55% | 984.9 hPa | - | - | - | - |
| 1777699506 | 16.11° C | 55% | 985.2 hPa | - | - | - | - |
| 1777697706 | 16.11° C | 55% | 985.5 hPa | - | - | - | - |
| 1777695908 | 16.11° C | 55% | 985.8 hPa | - | - | - | - |
| 1777694107 | 16.67° C | 55% | 986 hPa | - | - | - | - |
| 1777692307 | 16.67° C | 55% | 986.2 hPa | - | - | - | - |
| 1777690507 | 16.67° C | 55% | 986.4 hPa | - | - | - | - |
| 1777688707 | 17.22° C | 55% | 986.4 hPa | - | - | - | - |
| 1777686907 | 17.22° C | 55% | 986.5 hPa | - | - | - | - |
| 1777685107 | 17.22° C | 55% | 986.6 hPa | - | - | - | - |
| 1777683307 | 17.78° C | 55% | 986.4 hPa | - | - | - | - |
| 1777681506 | 17.78° C | 54% | 986.4 hPa | - | - | - | - |
| 1777679706 | 18.33° C | 54% | 986.4 hPa | - | - | - | - |
| 1777677906 | 18.89° C | 53% | 986.2 hPa | - | - | - | - |
| 1777676106 | 18.89° C | 53% | 986.1 hPa | - | - | - | - |
| 1777674307 | 19.44° C | 53% | 985.9 hPa | - | - | - | - |
| 1777672506 | 20° C | 54% | 985.7 hPa | - | - | - | - |
| 1777670706 | 20.56° C | 54% | 985.6 hPa | - | - | - | - |
| 1777668906 | 20.56° C | 54% | 985.6 hPa | - | - | - | - |
| 1777667106 | 20° C | 56% | 985.8 hPa | - | - | - | - |
* Rain since midnight (hover to see other rain measurements)
** Current wind speed in m/s (hover to see current wind gust speed)